Del Bajio, Mexico

4:42 AM CDT on August 24, 2016 (GMT -0500)
De Guanajuato International

Weather History for MMLO - January, 2014

Change the Weather History Date:

Thursday, January 30, 2014

  Actual Average Record
Temperature  
Mean Temperature 60 °F -  
Max Temperature 77 °F 74 °F 84 °F (2005)
Min Temperature 42 °F 44 °F 39 °F (2013)
Degree Days  
Heating Degree Days 6    
Growing Degree Days 10 (Base 50)    
Moisture  
Dew Point 36 °F    
Average Humidity 49    
Maximum Humidity 87    
Minimum Humidity 18    
Precipitation  
Precipitation 0.00 in - - ()
Sea Level Pressure  
Sea Level Pressure 30.13 in    
Wind  
Wind Speed 2 mph ()    
Max Wind Speed 7 mph    
Max Gust Speed -    
Visibility 8.8 miles    
Events      
Averages and records for this station are not official NWS values.
T = Trace of Precipitation, MM = Missing Value Source: Averaged Metar Reports

Daily Weather History Graph

Daily Weather History Graph

Search for Another Location

Airport or City:

Trip Planner

Search our weather history database for the weather conditions in past years. The results will help you decide how hot, cold, wet, or windy it might be!

Date:

Astronomy

Jan. 30, 2014 Rise Set
Actual Time 7:23 AM CST 6:35 PM CST
Civil Twilight 7:00 AM CST 6:58 PM CST
Nautical Twilight 6:33 AM CST 7:25 PM CST
Astronomical Twilight 6:07 AM CST 7:51 PM CST
Moon 6:56 AM CST (1/30) 6:41 PM CST (1/30)
Length of Visible Light 11h 58m
Length of Day
11h 11m
Waning Crescent, 0% of the Moon is Illuminated
Jan 30
Waning Crescent
Jan 30
New
Feb 6
First Quarter
Feb 14
Full
Feb 22
Last Quarter

Hourly Weather History & Observations

Time (CST) Temp. Windchill Dew Point Humidity Pressure Visibility Wind Dir Wind Speed Gust Speed Precip Events Conditions
12:43 AM 48.2 °F - 39.2 °F 71% 30.21 in 8.0 mi ENE 4.6 mph - N/A   Scattered Clouds
2:43 AM 46.4 °F 43.5 °F 39.2 °F 76% 29.91 in 8.0 mi NE 5.8 mph - N/A   Scattered Clouds
3:44 AM 44.6 °F - 37.4 °F 76% 30.21 in 8.0 mi Calm Calm - N/A   Scattered Clouds
4:43 AM 44.6 °F - 39.2 °F 81% 30.21 in 8.0 mi Calm Calm - N/A   Scattered Clouds
5:43 AM 44.6 °F - 39.2 °F 81% 29.97 in 8.0 mi Calm Calm - N/A   Scattered Clouds
6:45 AM 42.8 °F - 39.2 °F 87% 30.24 in 8.0 mi Calm Calm - N/A   Scattered Clouds
7:46 AM 42.8 °F - 37.4 °F 81% 30.27 in 8.0 mi Calm Calm - N/A   Clear
8:46 AM 53.6 °F - 41.0 °F 62% 30.08 in 9.0 mi Calm Calm - N/A   Clear
9:44 AM 60.8 °F - 42.8 °F 52% 30.30 in 9.0 mi Calm Calm - N/A   Clear
10:46 AM 64.4 °F - 42.8 °F 45% 30.30 in 10.0 mi Calm Calm - N/A   Clear
11:49 AM 68.0 °F - 37.4 °F 33% 29.99 in 10.0 mi West 3.5 mph - N/A   Clear
12:46 PM 71.6 °F - 35.6 °F 27% 30.24 in 10.0 mi WNW 3.5 mph - N/A   Clear
1:44 PM 73.4 °F - 35.6 °F 25% 30.21 in 10.0 mi WSW 6.9 mph - N/A   Clear
2:41 PM 75.2 °F - 32.0 °F 21% 29.84 in 10.0 mi West 4.6 mph - N/A   Clear
3:44 PM 77.0 °F - 30.2 °F 18% 30.12 in 10.0 mi Calm Calm - N/A   Clear
4:41 PM 77.0 °F - 32.0 °F 19% 30.12 in 10.0 mi SSW 6.9 mph - N/A   Clear
6:48 PM 66.2 °F - 30.2 °F 26% 30.15 in 10.0 mi Calm Calm - N/A   Clear
7:42 PM 62.6 °F - 32.0 °F 32% 30.15 in 8.0 mi ENE 4.6 mph - N/A   Clear
8:46 PM 55.4 °F - 32.0 °F 41% 29.94 in 8.0 mi NE 6.9 mph - N/A   Clear
9:40 PM 57.2 °F - 32.0 °F 38% 30.18 in 8.0 mi Calm Calm - N/A   Clear
10:49 PM 53.6 °F - 32.0 °F 44% 30.20 in 8.0 mi NE 5.8 mph - N/A   Clear
11:50 PM 51.8 °F - 33.8 °F 50% 29.92 in 8.0 mi NNW 6.9 mph - N/A   Clear